sat.trackr.live / text

‹ back to catalog

JILIN-1 06

NORAD 43024 · 2017-074C

PAYLOAD ACTIVE UNKNOWN

§ Identity

Operator
Country
PRC
Launch date
2017-11-21
Launch site
TAISC
Launch vehicle
Mass (kg)
RCS (m²)

External: N2YO · Heavens-Above · Gunter

§ Orbital elements

Epoch: 2026-09-20T04:30:50.066208Z

Period
93.83 min
Inclination
97.4825°
Eccentricity
0.0005285
Mean motion
15.34655678 rev/d
Perigee alt
458.3 km
Apogee alt
465.6 km
Semi-major
6,840.1 km
B*
1.3531e-4
RAAN
7.6026°
Arg perigee
258.9418°
Mean anomaly
101.1231°
Rev number
48,840

§ Raw data

JILIN-1 061 43024U 17074C   26263.18807947  .00004463  00000+0  13531-3 0  99972 43024  97.4825   7.6026 0005285 258.9418 101.1231 15.34655678488401

JSON: /api/v1/satellites/43024 · /tle

For live sub-satellite position, see the globe view (requires WebGL).

§ Visibility from observer

Set your observer location to see the next 7 days of passes ≥ 10°. The values pass through the URL so the page stays shareable.

No JS? Fill the form by hand. The geolocation button needs JavaScript.